Flag for France Weather past 2 weeks in Bastia, Corsica, France

Now
68 °F

Passing clouds.


Feels Like: 68 °F
Forecast: 67 / 77 °F
Wind: 3 mph from Southwest

Location: Bastia Airport

Current Time: Aug 28, 2014 at 5:35:41 AM

Latest Report: Aug 28, 2014 at 5:00 AM


Visibility: N/A

Pressure: 29.89 "Hg

Humidity: 88%

Dew point: 64 °F

Location of BastiaLocation

Historic Weather in Bastia — Graph

°F

Bastia temperature yesterday

Maximum temperature yesterday: 88 °F (at 11:30 AM)
Minimum temperature yesterday: 64 °F (at 2:00 AM)
Average temperature yesterday: 75 °F

Past Weeks' High & Low Weather Summary

 TemperatureHumidityPressure
High88 °F (Aug 27, 11:30 AM)94% (Aug 13, 4:00 AM)30.07 "Hg (Aug 13, 4:00 AM)
Low61 °F (Aug 18, 1:30 AM)25% (Aug 14, 11:00 AM)29.74 "Hg (Aug 13, 10:00 AM)
Average73 °F67%29.92 "Hg
* Reported Aug 13 4:00 AM — Aug 28 4:30 AM, Bastia, Weather by CustomWeather, © 2014

Note: Actual official high and low records may vary slightly from our data, if they occured in-between our weather recording intervals... More about our weather records

Advertising

Bastia weather history for previous 24 hours

 ConditionsComfort  
Time TempWeatherWind HumidityBarometerVisibility
4:30 AM
Aug 28
68 °FPassing clouds.5 mph88%29.89 "HgN/A
4:00 AM68 °FPassing clouds.3 mph88%29.89 "HgN/A
3:30 AM68 °FPassing clouds.5 mph94%29.89 "HgN/A
3:00 AM68 °FOvercast.2 mph94%29.89 "HgN/A
2:30 AM68 °FClear.3 mph94%29.89 "HgN/A
2:00 AM68 °FPassing clouds.2 mph94%29.89 "HgN/A
1:30 AM70 °FPartly cloudy.1 mph88%29.89 "HgN/A
1:00 AM70 °FPassing clouds.No wind88%29.89 "HgN/A
12:30 AM70 °FPassing clouds.2 mph88%29.89 "HgN/A
12:00 AM70 °FPassing clouds.2 mph88%29.89 "HgN/A
11:30 PM
Aug 27
72 °FPartly cloudy.2 mph88%29.89 "HgN/A
11:00 PM72 °FPartly cloudy.No wind88%29.89 "HgN/A
10:30 PM72 °FPassing clouds.No wind88%29.89 "HgN/A
10:00 PM72 °FPassing clouds.1 mph88%29.89 "HgN/A
9:30 PM73 °FPassing clouds.3 mph83%29.89 "HgN/A
8:30 PM75 °FPassing clouds.No wind83%29.86 "HgN/A
8:00 PM77 °FPassing clouds.3 mph79%29.86 "HgN/A
7:30 PM79 °FPassing clouds.2 mph74%29.86 "HgN/A
7:00 PM81 °FScattered clouds.2 mph74%29.86 "HgN/A
6:30 PM81 °FScattered clouds.6 mph70%29.86 "HgN/A
6:00 PM82 °FScattered clouds.5 mph66%29.86 "HgN/A
4:30 PM81 °FScattered clouds.6 mph66%29.83 "HgN/A
4:00 PM82 °FScattered clouds.7 mph66%29.83 "HgN/A
3:30 PM82 °FScattered clouds.8 mph55%29.83 "HgN/A
3:00 PM81 °FScattered clouds.8 mph70%29.83 "HgN/A
2:30 PM82 °FScattered clouds.12 mph66%29.83 "HgN/A
2:00 PM81 °FScattered clouds.10 mph70%29.83 "HgN/A
1:30 PM84 °FScattered clouds.10 mph58%29.83 "HgN/A
1:00 PM86 °FScattered clouds.12 mph49%29.83 "HgN/A
12:30 PM88 °FScattered clouds.10 mph40%29.83 "HgN/A
12:00 PM86 °FScattered clouds.12 mph49%29.83 "HgN/A
11:30 AM88 °FScattered clouds.No wind46%29.83 "HgN/A
11:00 AM86 °FScattered clouds.9 mph49%29.83 "HgN/A
10:30 AM82 °FScattered clouds.No wind66%29.83 "HgN/A
10:00 AM81 °FScattered clouds.No wind70%29.83 "HgN/A
9:30 AM79 °FScattered clouds.No wind70%29.83 "HgN/A
9:00 AM77 °FScattered clouds.No wind69%29.83 "HgN/A
8:30 AM75 °FPassing clouds.2 mph69%29.83 "HgN/A
8:00 AM70 °FPassing clouds.2 mph73%29.83 "HgN/A
7:30 AM68 °FPassing clouds.3 mph73%29.83 "HgN/A
7:00 AM66 °FPassing clouds.2 mph78%29.83 "HgN/A
6:30 AM66 °FPassing clouds.3 mph78%29.83 "HgN/A
6:00 AM64 °FPassing clouds.5 mph83%29.83 "HgN/A
5:30 AM64 °FClear.3 mph83%29.83 "Hg10 mi
5:00 AM66 °FPassing clouds.5 mph78%29.83 "HgN/A
Weather by CustomWeather, © 2014

See weather overviewHow to use our weather pages